Flag for U.S.A. Weather past 2 weeks in Provo, Utah, U.S.A.

Now
48 °F

Passing clouds.


Feels Like: 48 °F
Forecast: 48 / 67 °F
Wind: No wind

Location: Provo Municipal

Current Time: May 7, 2015 at 3:45:50 AM

Latest Report: May 7, 2015 at 3:15 AM


Visibility: 10 mi

Pressure: 29.80 "Hg

Humidity: 82%

Dew point: 43 °F

Location of ProvoLocation

Historic Weather in Provo — Graph

°F

Provo temperature yesterday

Maximum temperature yesterday: 59 °F (at 11:48 AM)
Minimum temperature yesterday: 48 °F (at 11:55 PM)
Average temperature yesterday: 52 °F

Past Weeks' High & Low Weather Summary

 TemperatureHumidityPressure
High79 °F (Apr 29, 3:47 PM)93% (May 3, 5:50 PM)30.26 "Hg (May 3, 5:50 PM)
Low36 °F (May 3, 5:50 PM)18% (Apr 23, 2:59 PM)29.68 "Hg (Apr 24, 2:47 PM)
Average54 °F59%29.94 "Hg
* Reported Apr 22 2:15 AM — May 7 2:55 AM, Provo, Weather by CustomWeather, © 2015

Note: Actual official high and low records may vary slightly from our data, if they occured in-between our weather recording intervals... More about our weather records

Advertising

Provo weather history for previous 24 hours

 ConditionsComfort  
Time TempWeatherWind HumidityBarometerVisibility
2:55 AM
Thu, May 7
48 °FPassing clouds.3 mph82%29.80 "Hg10 mi
2:35 AM48 °FPassing clouds.No wind82%29.82 "Hg10 mi
2:15 AM48 °FPassing clouds.No wind87%29.81 "Hg10 mi
1:55 AM48 °FPassing clouds.5 mph87%29.81 "Hg10 mi
1:35 AM48 °FClear.3 mph87%29.83 "Hg10 mi
1:15 AM48 °FPassing clouds.5 mph87%29.83 "Hg10 mi
12:55 AM48 °FPassing clouds.3 mph87%29.83 "Hg10 mi
12:35 AM48 °FPassing clouds.6 mph87%29.83 "Hg10 mi
12:15 AM48 °FPassing clouds.7 mph82%29.83 "Hg10 mi
11:55 PM
Wed, May 6
48 °FPassing clouds.14 mph82%29.82 "Hg10 mi
11:35 PM50 °FPassing clouds.14 mph76%29.82 "Hg10 mi
11:15 PM50 °FOvercast.12 mph76%29.81 "Hg10 mi
10:55 PM50 °FMostly cloudy.7 mph82%29.81 "Hg10 mi
10:35 PM50 °FMostly cloudy.16 mph82%29.81 "Hg7 mi
10:15 PM52 °FMostly cloudy.13 mph77%29.80 "Hg10 mi
9:55 PM52 °FOvercast.10 mph77%29.80 "Hg10 mi
9:35 PM54 °FOvercast.10 mph72%29.79 "Hg10 mi
8:51 PM52 °FPartly sunny.No wind77%29.77 "Hg15 mi
7:50 PM52 °FScattered showers. Broken clouds.12 mph72%29.76 "Hg15 mi
6:57 PM57 °FThunderstorms. Broken clouds.No wind67%29.72 "Hg15 mi
4:55 PM59 °FBroken clouds.5 mph55%29.72 "Hg15 mi
3:47 PM55 °FPartly sunny.9 mph67%29.76 "Hg15 mi
2:52 PM54 °FScattered showers. More clouds than sun.12 mph72%29.78 "Hg15 mi
1:47 PM55 °FScattered showers. Mostly cloudy.17 mph67%29.78 "Hg15 mi
12:59 PM57 °FBroken clouds.5 mph67%29.79 "Hg15 mi
11:48 AM59 °FBroken clouds.6 mph63%29.82 "Hg15 mi
6:35 AM50 °FPassing clouds.5 mph88%29.85 "Hg10 mi
6:15 AM50 °FMostly cloudy.6 mph88%29.84 "Hg10 mi
5:55 AM50 °FOvercast.6 mph88%29.84 "Hg10 mi
5:35 AM50 °FMostly cloudy.7 mph88%29.85 "Hg10 mi
5:15 AM52 °FOvercast.5 mph82%29.85 "Hg10 mi
4:55 AM50 °FMostly cloudy.5 mph88%29.85 "Hg10 mi
4:35 AM50 °FOvercast.7 mph88%29.85 "Hg10 mi
4:15 AM52 °FMostly cloudy.6 mph82%29.85 "Hg10 mi
3:55 AM52 °FMostly cloudy.5 mph88%29.85 "Hg10 mi
3:35 AM52 °FMostly cloudy.No wind88%29.85 "Hg10 mi
3:15 AM52 °FPartly cloudy.No wind82%29.85 "Hg9 mi
Weather by CustomWeather, © 2015

See weather overviewHow to use our weather pages